This demonstration page uses our WeatherBlox Daily Observations layout. Learn more.

Left ArrowRight Arrow

Hourly Observations for December 17, 2020

Temp ( °F °C ) Dew Point ( °F °C ) Humidity (%) Winds ( mph kmh ) Pressure ( in mb ) Visibility ( mi km ) Precip ( " mm )
12:52 am 00:52 Clear with Mist and Fog 20 -6.7 17 -8.3 89 89 SSE 8 13 30.05 1018 6 10 0.00 0.00
1:52 am 01:52 Clear with Mist and Fog 19 -7.2 17 -8.3 92 92 SSE 9 15 30.04 1017 5 8 0.00 0.00
2:52 am 02:52 Clear with Mist and Fog 20 -6.7 18 -7.8 92 92 SSE 9 15 30.04 1017 5 8 0.00 0.00
3:52 am 03:52 Clear with Mist and Fog 20 -6.7 17 -8.3 89 89 S 9 15 30.04 1017 5 8 0.00 0.00
4:52 am 04:52 Clear 17 -8.3 15 -9.4 92 92 SSE 6 9 30.04 1017 7 11 0.00 0.00
5:52 am 05:52 Clear 18 -7.8 15 -9.4 88 88 Calm 30.04 1017 7 11 0.00 0.00
6:52 am 06:52 Clear 16 -8.9 15 -9.4 96 96 SSE 6 9 30.06 1018 7 11 0.00 0.00
7:52 am 07:52 Sunny 19 -7.2 15 -9.4 84 84 Calm 30.09 1019 7 11 0.00 0.00
8:52 am 08:52 Sunny with Mist and Fog 18 -7.8 15 -9.4 88 88 Calm 30.09 1019 5 8 0.00 0.00
9:52 am 09:52 Sunny with Mist and Fog 21 -6.1 17 -8.3 85 85 Calm 30.10 1019 6 10 0.00 0.00
10:52 am 10:52 Sunny 25 -3.9 19 -7.2 78 78 N 3 6 30.11 1020 8 13 0.00 0.00
11:52 am 11:52 Mostly Sunny 26 -3.3 21 -6.1 81 81 Calm 30.11 1020 10 16 0.00 0.00
12:52 pm 12:52 Partly Cloudy 31 -0.6 24 -4.4 76 76 NNE 5 7 30.09 1019 10 16 0.00 0.00
1:52 pm 13:52 Partly Cloudy 33 0.6 26 -3.3 75 75 Calm 30.08 1019 10 16 0.00 0.00
2:52 pm 14:52 Partly Cloudy 34 1.1 25 -3.9 70 70 Calm 30.09 1019 10 16 0.00 0.00
3:52 pm 15:52 Partly Cloudy 32 0 25 -3.9 75 75 SSE 6 9 30.09 1019 10 16 0.00 0.00
4:52 pm 16:52 Mostly Cloudy 31 -0.6 25 -3.9 79 79 SSE 8 13 30.10 1019 10 16 0.00 0.00
5:52 pm 17:52 Mostly Cloudy 29 -1.7 24 -4.4 82 82 SE 8 13 30.10 1019 10 16 0.00 0.00
6:52 pm 18:52 Mostly Cloudy 25 -3.9 22 -5.6 88 88 SE 8 13 30.10 1019 10 16 0.00 0.00
7:52 pm 19:52 Mostly Cloudy 24 -4.4 20 -6.7 84 84 SSE 7 11 30.10 1019 10 16 0.00 0.00
8:52 pm 20:52 Mostly Cloudy 23 -5 20 -6.7 88 88 SSE 7 11 30.10 1019 9 14 0.00 0.00
9:52 pm 21:52 Mostly Cloudy 22 -5.6 20 -6.7 92 92 SE 6 9 30.09 1019 9 14 0.00 0.00
10:52 pm 22:52 Partly Cloudy 23 -5 20 -6.7 88 88 SE 6 9 30.08 1019 10 16 0.00 0.00
11:52 pm 23:52 Mostly Cloudy 26 -3.3 22 -5.6 84 84 SSE 9 15 30.07 1018 10 16 0.00 0.00

Powered by AerisWeather